Snowfall_Accumulation
0.0 0.0 0.0 0.0 0.0 0.0 0.0 0.0 0.0 0.0 0.0 0.0 0.0 0.0 0.0 0.0 0.0 0.0 0.0 0.0 0.0 0.0 0.0 0.0 0.0 0.0 0.0 0.0 0.0 0.0 0.0 0.0 0.0 0.0 0.0 0.0 0.0 0.0 0.0 0.0 0.0 0.0 0.0 0.0
0.0 0.0 0.0 0.0 0.0 0.0 0.0 0.0 0.0 0.0 0.0 0.0 0.0 0.0 0.0 0.0 0.0 0.0 0.0 0.0 0.0 0.0 0.0 0.0 0.0 0.0 0.0 0.0 0.0 0.0 0.0 0.0 0.0 0.0 0.0 0.0 0.0 0.0 0.0 0.0 0.0 0.0 0.0 0.0
0.0 0.0 0.0 0.0 0.0 0.0 0.0 0.0 0.0 0.0 0.0 0.0 0.0 0.0 0.0 0.0 0.0 0.0 0.0 0.0 0.0 0.0 0.0 0.0 0.0 0.0 0.0 0.0 0.0 0.0 0.0 0.0 0.0 0.0 0.0 0.0 0.0 0.0 0.0 0.0 0.0 0.0 0.0 0.0
0.0 0.0 0.0 0.0 0.0 0.0 0.0 0.0 0.0 0.0 0.0 0.0 0.0 0.0 0.0 0.0 0.0 0.0 0.0 0.0 0.0 0.0 0.0 0.0 0.0 0.0 0.0 0.0 0.0 0.0 0.0 0.0 0.0 0.0 0.0 0.0 0.0 0.0 0.0 0.0 0.0 0.0 0.0 0.0
0.0 0.0 0.0 0.0 0.0 0.0 0.0 0.0 0.0 0.0 0.0 0.0 0.0 0.0 0.0 0.0 0.0 0.0 0.0 0.0 0.0 0.0 0.0 0.0 0.0 0.0 0.0 0.0 0.0 0.0 0.0 0.0 0.0 0.0 0.0 0.0 0.0 0.0 0.0 0.0 0.0 0.0 0.0 0.0
0.0 0.0 0.0 0.0 0.0 0.0 0.0 0.0 0.0 0.0 0.0 0.0 0.0 0.0 0.0 0.0 0.0 0.0 0.0 0.0 0.0 0.0 0.0 0.0 0.0 0.0 0.0 0.0 0.0 0.0 0.0 0.0 0.0 0.0 0.0 0.0 0.0 0.0 0.0 0.0 0.0 0.0 0.0 0.0
0.0 0.0 0.0 0.0 0.0 0.0 0.0 0.0 0.3 0.1 0.1 0.0 0.0 0.0 0.0 0.0 0.0 0.0 0.0 0.0 0.0 0.0 0.0 0.0 0.0 0.0 0.0 0.0 0.0 0.0 0.0 0.0 0.0 0.0 0.0 0.0 0.0 0.0 0.0 0.0 0.0 0.0 0.0 0.0
0.0 0.1 0.0 0.0 0.0 0.0 0.0 0.0 0.3 0.1 0.2 0.0 0.0 0.0 0.0 0.0 0.0 0.0 0.0 0.0 0.0 0.0 0.0 0.0 0.0 0.0 0.0 0.0 0.0 0.0 0.0 0.0 0.0 0.0 0.0 0.0 0.0 0.0 0.0 0.0 0.0 0.0 0.0 0.0
0.0 0.0 0.0 0.0 0.0 0.0 0.0 0.0 0.0 0.0 0.0 0.0 0.0 0.0 0.0 0.0 0.0 0.0 0.0 0.0 0.0 0.0 0.0 0.0 0.0 0.0 0.0 0.0 0.0 0.0 0.0 0.0 0.0 0.0 0.0 0.0 0.0 0.0 0.0 0.0 0.0 0.0 0.0 0.0
0.0 0.0 0.0 0.0 0.0 0.0 0.0 0.0 0.2 0.3 0.3 0.0 0.0 0.0 0.2 0.0 0.0 0.0 0.0 0.0 0.0 0.0 0.0 0.0 0.0 0.0 0.0 0.0 0.0 0.0 0.0 0.0 0.0 0.0 0.0 0.0 0.0 0.0 0.0 0.0 0.0 0.0 0.0 0.0
0.0 0.0 0.0 0.0 0.0 0.0 0.0 0.0 0.0 0.1 0.1 0.4 0.3 0.1 0.0 0.0 0.0 0.0 0.0 0.0 0.0 0.0 0.0 0.0 0.0 0.0 0.0 0.0 0.0 0.0 0.0 0.0 0.0 0.0 0.0 0.0 0.0 0.0 0.0 0.0 0.0 0.0 0.0 0.0
0.0 0.0 0.0 0.0 0.0 0.0 0.0 0.0 0.0 1.3 0.1 0.2 0.7 1.5 0.0 0.0 0.0 0.0 0.0 0.0 0.0 0.0 0.0 0.0 0.0 0.0 0.0 0.0 0.0 0.0 0.0 0.0 0.0 0.0 0.0 0.0 0.0 0.0 0.0 0.0 0.0 0.0 0.0 0.0
0.0 0.5 0.1 0.0 0.0 0.0 0.0 0.0 0.0 0.0 0.0 0.1 3.7 0.6 0.0 0.0 0.0 0.0 0.0 0.0 0.0 0.0 0.0 0.0 0.0 0.0 0.0 0.0 0.0 0.0 0.0 0.0 0.0 0.0 0.0 0.0 0.0 0.0 0.0 0.0 0.0 0.0 0.0 0.0
nan 0.0 0.0 0.0 0.0 0.0 0.2 0.0 0.0 0.0 2.2 0.2 0.2 0.0 0.0 0.0 0.0 0.0 0.0 0.0 0.0 0.0 0.0 0.0 0.0 0.0 0.0 0.0 0.0 0.0 0.0 0.0 0.0 0.0 0.0 0.0 0.0 0.0 0.0 0.0 0.0 0.0 0.0 0.0
0.0 0.0 0.0 0.0 0.0 0.0 0.1 0.1 0.1 0.1 0.1 0.7 0.1 0.1 0.0 0.0 0.0 0.0 0.0 0.0 0.0 0.0 0.0 0.0 0.0 0.0 0.0 0.0 0.0 0.0 0.0 0.0 0.0 0.0 0.1 0.2 0.1 0.1 0.1 0.1 0.1 0.1 0.1 0.0
0.0 0.5 0.0 0.0 0.0 0.0 0.0 0.0 0.0 0.0 0.0 0.0 0.0 0.1 0.0 0.0 0.0 0.0 0.0 0.0 0.0 0.0 0.0 0.0 0.0 0.0 0.0 0.0 0.0 0.0 0.1 0.2 0.1 0.1 0.9 1.8 0.3 0.4 0.9 0.5 0.7 0.3 0.1 0.2
0.0 0.4 0.3 0.4 0.0 0.0 0.5 0.0 0.0 0.0 0.0 0.0 0.7 0.0 0.0 0.0 0.0 0.0 0.0 0.0 0.0 0.0 0.0 0.0 0.0 0.1 0.1 0.1 0.1 0.1 0.2 0.1 0.2 0.5 0.6 1.5 1.9 1.5 3.2 0.8 0.6 1.4 1.5 0.9
0.0 0.1 0.3 1.2 0.2 4.4 0.0 0.0 0.0 0.0 0.0 0.0 0.0 0.0 0.0 0.0 0.0 0.0 0.0 0.0 0.0 0.0 0.1 0.1 0.2 0.2 0.3 0.1 0.1 0.2 0.3 0.5 0.6 1.4 1.7 1.1 1.6 3.4 1.4 3.4 4.9 4.8 4.7 6.4
0.0 0.1 2.0 3.1 0.8 0.0 0.0 0.1 0.8 0.2 0.1 0.0 0.0 0.0 0.0 0.0 0.0 0.1 0.0 0.0 0.2 0.7 2.5 0.9 0.9 0.8 0.6 0.8 0.8 1.0 1.1 0.6 0.5 3.6 3.6 4.6 4.5 4.8 3.2 5.6 9.6 6.9 5.0 5.1
0.0 0.0 0.8 1.3 0.5 5.8 0.7 0.0 0.0 0.0 1.0 0.0 0.0 0.0 0.0 0.0 0.9 1.5 0.1 0.1 0.3 0.8 1.9 4.7 2.3 1.5 0.6 0.9 0.2 1.2 1.6 1.9 3.6 3.6 3.8 2.3 3.4 5.2 8.2 5.3 5.5 7.6 5.7 7.0
0.5 1.1 2.6 1.0 2.1 0.6 0.0 0.0 0.0 1.2 0.4 0.0 0.0 0.0 0.0 0.7 0.5 1.1 0.6 1.3 0.8 1.7 1.3 0.5 1.9 4.7 2.5 0.5 0.3 1.0 2.8 4.1 4.6 2.9 2.8 2.4 0.9 2.0 3.1 3.3 4.5 4.9 5.7 5.3
0.1 1.1 2.8 3.3 5.2 6.8 0.0 0.0 0.4 0.7 0.1 0.0 0.1 0.1 0.1 0.7 2.2 3.9 3.6 2.5 1.4 1.3 0.5 0.2 0.3 0.7 2.0 1.5 1.4 2.2 1.3 2.8 1.3 2.1 2.1 2.2 2.8 1.9 1.4 1.8 2.5 3.9 5.0 6.1
4.5 0.8 3.0 0.6 1.6 0.1 0.0 0.1 0.0 0.0 0.0 0.1 0.1 0.1 0.1 1.4 3.8 4.7 5.6 3.5 1.9 0.8 0.3 0.2 0.2 0.4 0.4 0.1 0.1 2.1 2.5 0.3 0.7 0.4 1.2 2.1 1.5 1.1 1.3 1.9 2.6 2.0 1.6 2.6
0.0 0.0 0.7 0.3 0.1 0.0 0.0 0.0 0.0 0.0 0.1 0.1 0.1 0.1 0.3 4.7 6.1 5.9 3.5 2.2 0.9 0.4 0.4 0.2 0.2 0.3 0.2 0.0 0.0 0.0 0.1 0.1 0.5 0.4 0.3 0.2 0.3 0.8 0.7 1.0 1.7 2.3 3.1 3.7
0.3 0.1 0.2 0.3 0.1 0.0 0.0 0.0 0.0 0.0 0.1 0.1 0.2 0.2 1.0 1.0 1.8 1.0 1.3 0.9 0.4 0.3 0.3 0.1 0.1 0.1 0.1 0.0 0.0 0.0 0.0 0.0 0.0 0.0 0.0 0.1 0.3 0.2 0.7 2.0 1.8 1.7 4.3 4.0
0.1 0.1 0.9 1.8 0.0 0.0 0.1 0.0 0.0 0.1 0.1 0.1 0.1 0.7 0.7 0.2 1.0 0.4 1.5 1.1 0.3 0.3 0.1 0.1 0.0 0.0 0.0 0.0 0.0 0.0 0.0 0.0 0.1 0.0 0.3 0.5 0.4 0.6 0.6 0.8 1.7 nan nan nan
Water_Equivalent
0.00 0.00 0.00 0.00 0.00 0.00 0.00 0.00 0.00 0.00 0.00 0.00 0.00 0.00 0.00 0.00 0.00 0.00 0.00 0.00 0.00 0.00 0.00 0.00 0.00 0.00 0.00 0.00 0.00 0.00 0.00 0.00 0.00 0.00 0.00 0.00 0.00 0.00 0.00 0.00 0.00 0.00 0.00 0.00
0.00 0.00 0.00 0.00 0.00 0.00 0.00 0.00 0.00 0.00 0.00 0.00 0.00 0.00 0.00 0.00 0.00 0.00 0.00 0.00 0.00 0.00 0.00 0.00 0.00 0.00 0.00 0.00 0.00 0.00 0.00 0.00 0.00 0.00 0.00 0.00 0.00 0.00 0.00 0.00 0.00 0.00 0.00 0.00
0.00 0.00 0.00 0.00 0.00 0.00 0.00 0.00 0.00 0.00 0.00 0.00 0.00 0.00 0.00 0.00 0.00 0.00 0.00 0.00 0.00 0.00 0.00 0.00 0.00 0.00 0.00 0.00 0.00 0.00 0.00 0.00 0.00 0.00 0.00 0.00 0.00 0.00 0.00 0.00 0.00 0.00 0.00 0.00
0.00 0.00 0.00 0.00 0.00 0.00 0.00 0.00 0.00 0.00 0.00 0.00 0.00 0.00 0.00 0.00 0.00 0.00 0.00 0.00 0.00 0.00 0.00 0.00 0.00 0.00 0.00 0.00 0.00 0.00 0.00 0.00 0.00 0.00 0.00 0.00 0.00 0.00 0.00 0.00 0.00 0.00 0.00 0.00
0.00 0.00 0.00 0.00 0.00 0.00 0.00 0.00 0.00 0.00 0.00 0.00 0.00 0.00 0.00 0.00 0.00 0.00 0.00 0.00 0.00 0.00 0.00 0.00 0.00 0.00 0.00 0.00 0.00 0.00 0.00 0.00 0.00 0.00 0.00 0.00 0.00 0.00 0.00 0.00 0.00 0.00 0.00 0.00
0.00 0.00 0.00 0.00 0.00 0.00 0.00 0.00 0.00 0.00 0.00 0.00 0.00 0.00 0.00 0.00 0.00 0.00 0.00 0.00 0.00 0.00 0.00 0.00 0.00 0.00 0.00 0.00 0.00 0.00 0.00 0.00 0.00 0.00 0.00 0.00 0.00 0.00 0.00 0.00 0.00 0.00 0.00 0.00
0.00 0.00 0.00 0.00 0.00 0.00 0.00 0.00 0.05 0.03 0.04 0.00 0.00 0.00 0.00 0.00 0.00 0.00 0.00 0.00 0.00 0.00 0.00 0.00 0.00 0.00 0.00 0.00 0.00 0.00 0.00 0.00 0.00 0.00 0.00 0.00 0.00 0.00 0.00 0.00 0.00 0.00 0.00 0.00
0.00 0.01 0.00 0.00 0.00 0.00 0.00 0.00 0.05 0.02 0.04 0.00 0.00 0.01 0.00 0.00 0.00 0.00 0.00 0.00 0.00 0.00 0.00 0.00 0.00 0.00 0.00 0.00 0.00 0.00 0.00 0.00 0.00 0.00 0.00 0.00 0.00 0.00 0.00 0.00 0.00 0.00 0.00 0.00
0.00 0.00 0.00 0.00 0.00 0.00 0.00 0.00 0.00 0.01 0.00 0.01 0.00 0.00 0.00 0.00 0.00 0.00 0.00 0.00 0.00 0.00 0.00 0.00 0.00 0.00 0.00 0.00 0.00 0.00 0.00 0.00 0.00 0.00 0.00 0.00 0.00 0.00 0.00 0.00 0.00 0.00 0.00 0.00
0.00 0.00 0.00 0.00 0.00 0.00 0.00 0.00 0.06 0.08 0.05 0.01 0.00 0.00 0.06 0.00 0.00 0.00 0.00 0.00 0.00 0.00 0.00 0.00 0.00 0.00 0.00 0.00 0.00 0.00 0.00 0.00 0.00 0.00 0.00 0.00 0.00 0.00 0.00 0.00 0.00 0.00 0.00 0.00
0.00 0.00 0.00 0.00 0.00 0.00 0.00 0.00 0.00 0.02 0.04 0.08 0.06 0.01 0.00 0.00 0.00 0.00 0.00 0.00 0.00 0.00 0.00 0.00 0.00 0.00 0.00 0.00 0.00 0.00 0.00 0.00 0.00 0.00 0.00 0.00 0.00 0.00 0.00 0.00 0.00 0.00 0.00 0.00
0.00 0.00 0.00 0.00 0.00 0.00 0.00 0.00 0.00 0.28 0.01 0.04 0.14 0.23 0.00 0.00 0.00 0.00 0.00 0.00 0.00 0.00 0.00 0.00 0.00 0.00 0.00 0.00 0.00 0.00 0.00 0.00 0.00 0.00 0.00 0.00 0.00 0.00 0.00 0.00 0.00 0.00 0.00 0.00
0.00 0.08 0.02 0.00 0.01 0.00 0.00 0.00 0.00 0.00 0.01 0.02 0.64 0.10 0.00 0.00 0.00 0.00 0.00 0.00 0.00 0.00 0.00 0.00 0.00 0.00 0.00 0.00 0.00 0.00 0.00 0.00 0.00 0.00 0.00 0.00 0.00 0.00 0.00 0.00 0.00 0.00 0.00 0.00
nan 0.00 0.00 0.00 0.01 0.00 0.03 0.01 0.00 0.00 0.49 0.05 0.04 0.01 0.00 0.00 0.00 0.00 0.00 0.00 0.00 0.00 0.00 0.00 0.00 0.00 0.00 0.00 0.00 0.00 0.00 0.00 0.00 0.00 0.00 0.00 0.00 0.00 0.00 0.00 0.00 0.00 0.00 0.00
0.00 0.01 0.00 0.00 0.00 0.00 0.02 0.03 0.01 0.01 0.01 0.14 0.02 0.02 0.00 0.00 0.00 0.00 0.00 0.00 0.00 0.00 0.00 0.00 0.00 0.00 0.00 0.00 0.00 0.00 0.00 0.00 0.00 0.00 0.02 0.04 0.03 0.02 0.02 0.02 0.02 0.02 0.01 0.00
0.00 0.11 0.00 0.01 0.00 0.00 0.01 0.01 0.00 0.00 0.01 0.01 0.01 0.02 0.00 0.00 0.00 0.00 0.00 0.00 0.00 0.00 0.00 0.00 0.00 0.00 0.00 0.00 0.00 0.00 0.01 0.04 0.02 0.02 0.18 0.43 0.06 0.09 0.19 0.10 0.13 0.05 0.03 0.04
0.00 0.08 0.06 0.08 0.00 0.00 0.07 0.00 0.00 0.00 0.00 0.00 0.20 0.00 0.00 0.00 0.00 0.00 0.00 0.00 0.00 0.00 0.00 0.00 0.01 0.01 0.02 0.02 0.02 0.02 0.05 0.03 0.05 0.09 0.13 0.28 0.39 0.29 0.60 0.15 0.12 0.25 0.28 0.17
0.00 0.02 0.07 0.23 0.05 0.51 0.01 0.00 0.00 0.00 0.00 0.00 0.00 0.00 0.00 0.00 0.00 0.00 0.00 0.00 0.00 0.01 0.01 0.03 0.04 0.04 0.06 0.03 0.03 0.04 0.07 0.10 0.11 0.27 0.33 0.22 0.29 0.57 0.27 0.62 0.80 0.82 0.84 1.12
0.00 0.01 0.42 0.57 0.17 0.00 0.00 0.02 0.20 0.06 0.01 0.00 0.00 0.00 0.00 0.00 0.00 0.02 0.00 0.01 0.04 0.16 0.72 0.18 0.19 0.17 0.13 0.18 0.18 0.21 0.23 0.12 0.09 0.64 0.69 0.95 0.81 0.78 0.59 0.90 1.72 1.29 0.89 0.88
0.00 0.01 0.17 0.25 0.08 0.82 0.14 0.00 0.00 0.00 0.19 0.00 0.00 0.00 0.01 0.00 0.18 0.37 0.03 0.02 0.08 0.19 0.41 1.15 0.50 0.34 0.14 0.21 0.05 0.36 0.43 0.58 0.88 0.86 0.79 0.51 0.85 1.11 1.84 1.21 1.03 1.79 1.23 1.32
0.12 0.21 0.42 0.22 0.36 0.12 0.00 0.00 0.00 0.21 0.07 0.01 0.00 0.00 0.01 0.13 0.10 0.31 0.18 0.32 0.20 0.38 0.27 0.10 0.55 1.23 0.56 0.14 0.08 0.23 0.72 0.76 1.14 0.78 0.91 0.74 0.27 0.52 0.79 0.96 1.38 1.24 1.42 1.32
0.02 0.20 0.53 0.57 0.80 0.77 0.00 0.01 0.06 0.12 0.02 0.01 0.02 0.03 0.03 0.19 0.51 0.91 0.80 0.51 0.28 0.24 0.11 0.04 0.05 0.15 0.53 0.41 0.39 0.43 0.24 0.57 0.30 0.54 0.53 0.54 0.72 0.49 0.37 0.46 0.61 0.98 1.25 1.45
1.04 0.17 0.57 0.11 0.31 0.02 0.01 0.03 0.01 0.01 0.01 0.02 0.02 0.03 0.03 0.35 0.84 1.03 0.92 0.62 0.34 0.15 0.06 0.03 0.03 0.06 0.06 0.02 0.02 0.48 0.49 0.07 0.15 0.10 0.23 0.51 0.37 0.25 0.31 0.42 0.55 0.43 0.34 0.50
0.01 0.00 0.18 0.04 0.02 0.01 0.00 0.00 0.01 0.01 0.01 0.02 0.02 0.02 0.06 1.11 1.39 1.04 0.60 0.37 0.15 0.07 0.07 0.03 0.04 0.05 0.03 0.01 0.00 0.01 0.01 0.03 0.11 0.07 0.07 0.05 0.06 0.17 0.15 0.22 0.36 0.47 0.59 0.64
0.07 0.02 0.03 0.05 0.02 0.00 0.00 0.00 0.00 0.01 0.02 0.02 0.04 0.05 0.20 0.22 0.31 0.18 0.22 0.16 0.07 0.05 0.05 0.02 0.02 0.02 0.01 0.00 0.00 0.00 0.00 0.00 0.00 0.00 0.01 0.01 0.06 0.03 0.12 0.33 0.31 0.33 0.61 0.64
0.04 0.02 0.18 0.36 0.01 0.01 0.01 0.00 0.00 0.02 0.04 0.03 0.03 0.14 0.15 0.05 0.17 0.07 0.25 0.19 0.07 0.06 0.03 0.01 0.01 0.00 0.01 0.00 0.01 0.00 0.00 0.00 0.02 0.01 0.11 0.17 0.15 0.19 0.19 0.23 0.37 nan nan nan
SL_Ratio
nan nan nan nan nan nan nan nan nan nan nan nan nan nan nan nan nan nan nan nan nan nan nan nan nan nan nan nan nan nan nan nan nan nan nan nan nan nan nan nan nan nan nan nan
nan nan nan nan nan nan nan nan nan nan nan nan nan nan nan nan nan nan nan nan nan nan nan nan nan nan nan nan nan nan nan nan nan nan nan nan nan nan nan nan nan nan nan nan
nan nan nan nan nan nan nan nan nan nan nan nan nan nan nan nan nan nan nan nan nan nan nan nan nan nan nan nan nan nan nan nan nan nan nan nan nan nan nan nan nan nan nan nan
nan nan nan nan nan nan nan nan nan nan nan nan nan nan nan nan nan nan nan nan nan nan nan nan nan nan nan nan nan nan nan nan nan nan nan nan nan nan nan nan nan nan nan nan
nan nan nan nan nan nan nan nan nan nan nan nan nan nan nan nan nan nan nan nan nan nan nan nan nan nan nan nan nan nan nan nan nan nan nan nan nan nan nan nan nan nan nan nan
nan nan nan nan nan nan nan nan nan nan nan 4.4 nan nan nan nan nan nan nan nan nan nan nan nan nan nan nan nan nan nan nan nan nan nan nan nan nan nan nan nan nan nan nan nan
nan nan nan nan nan nan nan nan 4.9 4.6 3.7 4.3 nan nan nan nan nan nan nan nan nan nan nan nan nan nan nan nan nan nan nan nan nan nan nan nan nan nan nan nan nan nan nan nan
nan 4.4 nan nan nan nan nan nan 5.3 6.0 3.9 nan nan 4.1 nan nan nan nan nan nan nan nan nan nan nan nan nan nan nan nan nan nan nan nan nan nan nan nan nan nan nan nan nan nan
nan nan nan nan nan nan nan nan nan 4.1 0.0 3.9 nan nan nan nan nan nan nan nan nan nan nan nan nan nan nan nan nan nan nan nan nan nan nan nan nan nan nan nan nan nan nan nan
nan 5.0 nan nan nan nan nan nan 3.7 3.5 6.6 5.0 nan nan 4.2 nan nan nan nan nan nan nan nan nan nan nan nan nan nan nan nan nan nan nan nan nan nan nan nan nan nan nan nan nan
nan nan nan nan nan nan nan nan nan 4.1 4.2 4.7 4.6 3.9 nan nan nan nan nan nan nan nan nan nan nan nan nan nan nan nan nan nan nan nan nan nan nan nan nan nan nan nan nan nan
nan nan nan nan nan nan nan nan nan 4.5 5.5 4.7 4.9 6.6 nan nan nan nan nan nan nan nan nan nan nan nan nan nan nan nan nan 2.5 nan nan nan nan nan nan nan nan nan nan nan nan
nan 5.4 5.5 4.3 3.6 nan 4.3 nan nan nan 4.2 5.5 5.7 5.4 nan nan nan nan nan nan nan nan nan nan nan nan nan nan nan nan nan nan nan 2.5 nan nan nan nan nan nan nan nan nan nan
nan nan 6.0 6.0 5.7 3.3 5.4 4.7 nan 3.6 4.5 4.5 5.3 5.5 nan nan nan nan nan nan nan nan nan nan nan nan nan nan nan nan nan nan nan nan 0.0 nan 4.0 4.0 4.2 nan 5.0 nan nan nan
5.0 5.2 nan nan nan 5.0 5.3 5.1 4.9 5.6 5.0 5.0 5.2 4.0 nan nan nan nan nan nan nan nan nan nan nan nan nan nan nan nan nan nan nan nan 4.3 4.5 4.4 4.3 4.2 4.4 4.5 4.7 4.6 4.0
nan 4.5 5.0 5.9 nan 5.0 5.7 5.6 10.0 nan 4.4 5.2 5.2 5.6 nan nan nan nan nan nan nan nan nan nan nan nan nan nan 4.0 0.0 4.0 5.1 4.2 4.6 4.9 4.3 4.7 4.9 5.1 5.3 5.6 5.3 4.7 4.9
3.8 4.6 4.5 4.7 nan 5.0 6.3 10.0 nan nan nan nan 3.6 5.5 nan nan nan nan nan nan nan nan nan 5.0 4.3 4.2 4.1 4.2 4.1 4.5 5.4 4.4 4.9 5.0 5.0 5.1 4.8 5.1 5.4 5.4 5.2 5.4 5.6 5.4
0.0 5.1 4.5 5.3 4.4 8.6 4.4 nan nan nan nan nan nan nan nan nan nan nan nan nan nan 3.4 3.9 4.0 4.3 4.7 4.4 4.1 4.1 4.5 4.7 4.9 5.1 5.2 5.2 4.9 5.6 6.0 5.4 5.5 6.1 5.9 5.6 5.7
nan 5.3 4.7 5.5 4.8 5.0 0.0 3.6 4.1 4.0 4.7 nan nan nan nan nan nan 4.4 0.0 3.5 4.0 4.3 3.4 4.9 4.6 4.9 4.5 4.4 4.3 4.7 4.9 5.0 5.2 5.6 5.2 4.9 5.5 6.2 5.5 6.2 5.6 5.3 5.6 5.8
nan 4.6 4.9 5.2 6.3 7.0 4.8 nan nan 5.0 5.3 nan nan nan 3.7 3.3 5.0 4.0 3.7 3.7 4.3 4.3 4.6 4.1 4.5 4.3 4.1 4.2 4.3 3.3 3.7 3.3 4.1 4.2 4.8 4.6 4.0 4.7 4.5 4.4 5.3 4.2 4.6 5.3
4.6 5.1 6.2 4.7 5.6 4.5 0.0 3.3 nan 5.7 5.6 3.6 5.0 3.6 3.5 5.3 4.8 3.6 3.5 4.0 4.0 4.4 4.8 4.8 3.5 3.8 4.5 3.4 3.8 4.2 3.8 5.5 4.1 3.7 3.1 3.2 3.4 3.8 3.9 3.4 3.3 4.0 4.0 4.0
4.9 5.3 5.3 5.9 6.5 8.9 nan 3.6 5.7 5.3 4.0 3.9 4.0 4.1 4.8 3.9 4.3 4.3 4.5 5.0 5.1 5.3 5.1 5.0 5.3 5.0 3.8 3.5 3.6 5.2 5.5 5.0 4.3 3.9 3.9 4.1 3.9 3.8 3.9 3.8 4.2 4.0 4.0 4.2
4.3 4.5 5.3 5.8 5.3 3.7 3.4 4.0 3.5 3.3 3.8 4.1 4.2 4.3 4.0 4.0 4.6 4.6 6.1 5.6 5.6 5.3 5.2 5.2 5.7 6.1 5.8 4.8 4.3 4.4 5.0 4.5 4.6 4.6 5.2 4.2 4.0 4.3 4.2 4.5 4.7 4.7 4.9 5.3
3.5 nan 4.1 6.3 4.1 4.0 3.8 3.1 3.3 3.6 3.9 4.0 4.0 4.2 4.2 4.2 4.4 5.7 5.9 5.9 5.7 5.4 5.7 5.5 5.9 6.4 6.5 5.0 4.3 4.2 3.7 3.8 4.6 5.0 5.0 5.0 5.3 4.9 4.9 4.5 4.6 4.9 5.3 5.8
4.2 4.8 5.5 5.5 4.8 4.0 3.8 4.0 3.6 3.9 4.0 4.1 4.2 4.4 4.7 4.7 5.7 5.5 6.0 5.9 5.6 5.7 5.6 5.6 6.0 6.1 6.2 6.7 nan nan nan nan 10.0 5.7 4.7 4.6 4.3 5.2 5.5 6.1 5.6 5.2 7.1 6.3
3.3 4.0 4.7 5.0 3.8 5.4 4.6 3.3 3.0 3.7 3.9 4.1 4.4 5.1 4.7 4.7 5.6 5.3 6.2 5.7 5.2 5.7 5.4 5.6 5.7 6.7 5.6 6.0 4.5 3.8 5.0 3.3 2.5 2.7 2.7 3.0 2.9 3.3 3.4 3.5 4.7 nan nan nan